Vertical_Velocity
2 -4 1 1 0 2 -0 -0 1 0 2 3 2 -4 2 -1 -2 -0 -1 0 2 2 0 -4 -0 -2 -2 -1 1 -0 -3 -6 -1 1 -0 -3 -1 -0
-0 -2 3 3 1 2 1 1 2 -1 1 2 0 2 -3 1 -0 -1 -0 -1 -2 0 1 -2 -2 -3 -1 0 -4 1 -4 -4 -1 -2 3 -2 0 -1
-1 3 1 1 1 1 -0 -2 2 -1 2 -0 -1 -1 1 -2 1 1 1 -3 -3 -3 2 -0 -1 0 -4 -3 -2 0 -3 -6 -2 0 2 -0 -4 1
6 3 1 2 1 -1 1 2 2 -3 3 -1 2 1 2 0 -2 -1 -1 -5 -4 -1 -2 2 0 -4 -4 -1 -2 -0 -2 -3 3 1 3 5 -5 -3
0 1 1 1 2 1 -1 3 -1 -3 0 1 2 1 1 -2 1 -2 -1 -4 -2 -0 -2 1 -2 -1 -1 -2 -3 4 -5 -4 4 -0 -0 -3 -4 0
-1 3 1 6 1 3 1 4 -2 2 0 3 3 1 1 -0 1 -2 -1 1 -1 -1 -3 1 -4 2 -2 -4 -3 -1 -3 -1 -0 -1 1 0 -5 -0
-5 -1 6 3 1 2 2 0 4 -0 -2 2 4 1 2 -1 -2 1 0 1 2 4 0 -3 3 4 -2 -6 -3 -0 -4 -3 -3 -2 -0 -4 -4 -2
6 1 -1 0 5 3 2 0 3 -0 -1 1 -1 2 1 -2 -4 -1 1 -0 3 -1 9 -3 -1 -2 2 -5 -5 -4 -6 -3 -1 1 -2 -3 -5 0
-5 4 -1 4 3 -3 0 7 1 -1 3 -2 1 -1 3 -3 3 -4 -3 -0 -2 -0 -2 17 -12 2 2 -1 -4 -7 -6 -3 -6 -1 -2 -4 -6 -1
6 3 4 -2 -2 3 5 0 7 1 -2 -2 -0 -1 3 -1 0 -3 -2 -1 -3 1 -2 13 -2 5 8 4 -1 -2 -8 -5 -5 -2 -2 -4 -7 -3
2 2 -0 2 4 -4 -3 3 1 0 -6 -0 3 -2 2 -4 1 -2 -2 -1 -3 1 -2 -3 2 4 6 12 -7 -7 -8 -1 4 -4 -0 -1 -10 -3
4 4 3 2 -4 -2 0 -2 -0 -3 -1 0 -0 -3 -2 -2 -2 -4 -3 -2 -4 -1 -1 -7 -1 -6 3 24 11 -5 3 -4 -8 2 1 -0 -12 -6
-4 4 2 1 -1 3 -0 1 -1 -2 -6 -4 -2 -2 1 -2 -0 0 -1 -3 -3 -9 2 -4 2 -1 -2 -14 16 -8 10 12 3 2 4 2 -10 -19
-0 9 2 6 -4 -0 -1 -3 -0 -4 -3 -0 -3 -1 -2 -1 0 -2 0 1 -2 -3 -1 3 -3 0 -6 -2 2 0 8 -12 -2 1 8 13 -3 0
1 10 4 -2 -1 1 3 -4 -1 -0 -4 1 -5 -4 1 2 -1 1 -1 0 -1 -2 -4 -4 -0 -1 -5 -6 -7 1 10 25 3 0 8 8 -11 -5
-5 5 6 4 4 0 5 -3 -1 -5 -0 3 -3 1 1 -1 -0 -3 3 2 -0 -3 -4 -5 -7 -1 -2 -9 -10 0 -9 -11 12 1 11 13 -4 -12
-7 2 -2 1 -0 2 1 -1 -1 1 -1 0 4 -1 -3 2 1 1 -1 -1 -1 -4 -4 1 -2 -3 -8 -1 -2 -11 0 4 -5 -11 -1 3 12 -8
-1 -2 2 4 -1 3 2 -4 0 -1 1 4 1 -3 2 -1 1 -1 -0 -2 0 -2 -2 -1 -1 1 -11 -26 -16 -2 -1 -12 4 -3 -4 -7 15 -8
3 1 2 0 -0 -3 -1 -3 2 -3 4 -2 -0 -5 4 -1 -2 -5 1 -0 -4 -6 -3 -8 4 -0 3 3 -2 -24 9 -3 7 6 -6 -5 -2 0
3 1 0 -2 -4 -0 -2 -0 -4 3 -2 3 -2 -1 -0 2 -2 -0 2 1 -8 -6 -10 -6 2 -7 -5 -0 17 -3 -27 -6 -3 2 4 16 1 0
0 0 -1 -4 -4 -3 2 -2 -2 1 -2 -2 3 -5 4 -3 1 -1 -0 -4 -3 -4 -6 -6 -2 0 2 -4 -7 11 -4 -26 -24 -15 -4 -0 -8 6
1 -0 -3 -3 -1 1 -2 -1 -2 -6 0 1 -1 -0 -4 -0 -2 -2 -4 -3 -0 -5 -8 -2 -4 -8 -6 -5 -4 -3 9 10 -7 -20 -11 -18 -18 -19
1 -1 -1 -3 0 -2 -1 1 -2 -0 -3 3 -0 -3 -2 -3 -3 -2 -2 -3 -2 -6 -1 -3 -6 -2 -4 -7 -3 1 -1 -1 7 28 -5 -6 -0 -7
Height
5775 5778 5785 5790 5796 5801 5804 5808 5811 5814 5816 5818 5821 5821 5824 5824 5824 5824 5823 5820 5818 5817 5815 5812 5810 5807 5803 5799 5795 5791 5788 5782 5776 5771 5766 5759 5752 5745
5766 5770 5775 5782 5788 5791 5796 5799 5801 5804 5808 5810 5812 5812 5815 5815 5815 5814 5812 5810 5807 5807 5806 5803 5799 5796 5792 5789 5785 5780 5777 5771 5765 5760 5754 5749 5740 5732
5756 5761 5766 5771 5777 5782 5786 5788 5790 5793 5797 5799 5800 5801 5803 5804 5804 5804 5802 5800 5799 5797 5794 5792 5789 5784 5780 5777 5773 5767 5763 5757 5751 5746 5741 5734 5727 5719
5747 5752 5758 5762 5766 5771 5775 5777 5780 5783 5786 5787 5789 5790 5792 5794 5794 5793 5792 5790 5789 5787 5784 5781 5778 5775 5770 5765 5760 5754 5750 5744 5738 5734 5727 5723 5714 5706
5736 5741 5746 5750 5756 5759 5762 5765 5768 5771 5774 5776 5778 5779 5782 5783 5783 5783 5781 5780 5777 5776 5773 5771 5767 5763 5758 5753 5747 5742 5737 5731 5726 5718 5713 5707 5699 5691
5725 5730 5733 5738 5742 5745 5748 5752 5756 5760 5762 5765 5768 5769 5770 5772 5773 5772 5772 5769 5767 5766 5763 5759 5756 5752 5746 5740 5734 5729 5725 5718 5712 5706 5700 5692 5683 5675
5712 5717 5722 5725 5729 5733 5736 5740 5744 5748 5750 5754 5757 5759 5760 5760 5760 5761 5760 5759 5757 5756 5753 5750 5746 5741 5734 5728 5723 5717 5711 5705 5697 5692 5686 5677 5670 5662
5700 5705 5710 5714 5718 5721 5725 5728 5732 5737 5739 5743 5744 5747 5748 5747 5749 5749 5749 5747 5747 5744 5742 5740 5733 5729 5724 5718 5711 5707 5700 5692 5684 5679 5672 5665 5657 5649
5685 5691 5697 5701 5705 5709 5713 5718 5721 5724 5728 5731 5733 5735 5735 5735 5737 5737 5735 5734 5733 5731 5730 5730 5723 5718 5712 5706 5700 5693 5686 5680 5674 5667 5661 5652 5642 5634
5675 5679 5684 5691 5696 5700 5704 5706 5710 5713 5716 5718 5722 5723 5724 5725 5725 5725 5724 5722 5721 5720 5717 5716 5712 5708 5702 5696 5690 5682 5676 5669 5662 5654 5647 5638 5628 5619
5664 5668 5676 5681 5686 5690 5694 5697 5701 5703 5705 5708 5711 5712 5713 5713 5713 5712 5712 5710 5709 5707 5703 5702 5699 5697 5693 5687 5677 5670 5663 5656 5649 5642 5633 5624 5614 5606
5654 5659 5666 5671 5675 5680 5684 5688 5691 5693 5698 5699 5699 5701 5701 5702 5701 5699 5698 5698 5697 5696 5692 5689 5686 5683 5682 5679 5667 5660 5653 5645 5638 5629 5619 5609 5600 5594
5646 5649 5657 5661 5666 5671 5675 5678 5680 5683 5684 5687 5689 5690 5690 5691 5690 5690 5688 5687 5684 5682 5680 5677 5675 5671 5668 5664 5658 5647 5641 5632 5626 5618 5608 5596 5585 5576
5636 5641 5647 5653 5657 5661 5665 5668 5671 5673 5675 5678 5678 5679 5680 5680 5681 5679 5677 5676 5673 5671 5670 5665 5661 5658 5653 5651 5646 5638 5631 5621 5615 5609 5600 5586 5573 5562
5626 5632 5638 5643 5647 5651 5655 5658 5661 5664 5667 5668 5669 5669 5669 5670 5669 5667 5665 5664 5663 5660 5657 5654 5651 5645 5641 5639 5635 5627 5624 5615 5603 5597 5587 5574 5561 5551
5618 5623 5628 5633 5637 5641 5645 5649 5652 5654 5656 5657 5658 5658 5658 5658 5657 5656 5655 5654 5652 5649 5646 5644 5641 5635 5630 5625 5622 5618 5608 5601 5594 5585 5577 5563 5544 5534
5610 5614 5620 5623 5626 5631 5634 5637 5639 5642 5645 5645 5647 5647 5647 5646 5646 5645 5644 5641 5640 5638 5635 5633 5630 5624 5620 5615 5610 5605 5598 5589 5579 5573 5566 5556 5534 5521
5600 5606 5610 5614 5617 5620 5624 5626 5629 5632 5634 5634 5635 5636 5635 5634 5634 5633 5632 5630 5628 5626 5624 5622 5618 5614 5608 5601 5600 5595 5584 5578 5569 5560 5551 5544 5533 5514
5590 5594 5599 5603 5606 5610 5613 5616 5619 5621 5622 5623 5623 5624 5623 5624 5623 5621 5620 5618 5616 5614 5612 5612 5607 5604 5600 5594 5583 5579 5576 5567 5560 5549 5539 5527 5520 5508
5577 5582 5587 5592 5595 5599 5603 5605 5607 5608 5611 5612 5612 5614 5613 5612 5611 5610 5609 5607 5605 5602 5600 5598 5595 5591 5589 5584 5575 5562 5559 5555 5548 5540 5532 5520 5509 5498
5564 5569 5574 5579 5583 5587 5589 5592 5595 5597 5598 5599 5599 5600 5600 5600 5600 5600 5597 5595 5593 5589 5587 5585 5582 5579 5574 5569 5564 5556 5543 5536 5530 5525 5519 5512 5502 5494
5550 5556 5560 5564 5569 5573 5576 5579 5582 5584 5585 5585 5586 5587 5588 5588 5588 5587 5586 5584 5581 5578 5575 5573 5570 5567 5563 5558 5551 5547 5540 5529 5516 5508 5499 5490 5484 5479
5536 5542 5546 5551 5555 5559 5563 5565 5567 5570 5571 5572 5574 5575 5576 5576 5576 5574 5573 5571 5569 5566 5563 5561 5557 5553 5550 5544 5540 5535 5530 5522 5515 5509 5493 5483 5473 5461